Location: Warner Observatory
(35.1353°N, 89.5455°W)
Time: 17:38:59
(UTC-05:00)

Amateur Radio Satellites - All Passes

Search period start: 19 August 2017 17:08
Search period end: 20 August 2017 17:08
Location: Warner Observatory, 35.1353°N, 89.5455°W

Satellite Date Start Highest point End Downlink Frequencies (MHz)
Time Altitude Azimuth
KKS-1 19 Aug 17:16:28 17:20:14 27° 97° (E) 17:23:57 437.445
XW-2C 19 Aug 17:26:30 17:28:39 15° 69° (ENE) 17:30:48 145.795 - 145.815
ITUPSAT 1 19 Aug 17:30:19 17:33:10 16° 294° (WNW) 17:36:01 437.325
Tancredo 1 19 Aug 17:38:24 17:41:03 33° 227° (SW) 17:43:41 437.200
XW-2F 19 Aug 17:39:15 17:42:01 20° 70° (ENE) 17:44:48 145.980 - 146.000
YUBILEINY 19 Aug 17:47:51 17:55:35 34° 286° (WNW) 18:03:21 435.215
SRMSAT 19 Aug 17:49:00 17:52:12 15° 189° (S) 17:55:24 437.500
STARS 19 Aug 17:59:13 18:03:07 32° 98° (E) 18:07:01 437.465
DOVE 4 19 Aug 18:03:29 18:08:40 55° 260° (W) 18:13:49 437.250
HO-68 19 Aug 18:05:03 18:10:10 22° 61° (ENE) 18:15:17 435.675
KAITUO 1B 19 Aug 18:06:20 18:09:43 35° 74° (ENE) 18:13:07 145.475/437.950
RS-15 19 Aug 18:09:18 18:17:01 18° 23° (NNE) 18:24:31 29.354- 29.394
CUTE-I 19 Aug 18:11:41 18:16:54 54° 73° (ENE) 18:22:07 437.470
ISS 19 Aug 18:20:34 18:23:48 63° 224° (SW) 18:27:01 437.550
LilacSat-2 19 Aug 18:22:35 18:26:21 88° 258° (WSW) 18:30:09 437.200
XW-2D 19 Aug 18:28:44 18:32:28 75° 259° (WSW) 18:36:14 145.860 - 145.880
nSIGHT-1 19 Aug 18:31:04 18:34:09 42° 226° (SW) 18:37:12 .
XW-2B 19 Aug 18:39:50 18:43:29 54° 260° (W) 18:47:11 145.730 - 145.750
NUDT-PHONESAT 19 Aug 18:41:05 18:44:43 75° 259° (WSW) 18:48:23 437.300
CUBESAT XI-V 19 Aug 18:48:17 18:50:27 13° 295° (WNW) 18:52:36 437.345
KKS-1 19 Aug 18:53:08 18:56:37 23° 291° (WNW) 19:00:04 437.445
CUBEBUG 2 19 Aug 18:57:08 18:59:55 17° 69° (ENE) 19:02:39 437.445
XW-2C 19 Aug 18:59:16 19:02:33 29° 263° (W) 19:05:52 145.795 - 145.815
CUTE 1.7 + AOD 2 19 Aug 18:59:59 19:03:50 35° 73° (ENE) 19:07:43 437.475
AAUSAT CUBESAT 2 19 Aug 19:07:58 19:09:14 11° 66° (ENE) 19:10:31 437.432
XW-2F 19 Aug 19:13:09 19:16:00 21° 265° (W) 19:18:53 145.980 - 146.000
STARS 19 Aug 19:36:09 19:39:12 19° 292° (WNW) 19:42:15 437.465
ZACube-1 19 Aug 19:36:42 19:38:49 14° 68° (ENE) 19:40:55 437.345
KAITUO 1B 19 Aug 19:42:33 19:43:49 11° 267° (W) 19:45:06 145.475/437.950
HO-68 19 Aug 19:50:08 19:57:14 66° 257° (WSW) 20:04:21 435.675
SEEDS 19 Aug 19:50:13 19:54:25 90° 246° (WSW) 19:58:39 437.485
CUTE-I 19 Aug 19:54:02 19:57:12 16° 267° (W) 20:00:24 437.470
AO-73 19 Aug 19:57:36 20:00:46 21° 70° (ENE) 20:03:55 145.935
XW-2A 19 Aug 20:05:33 20:08:49 57° 260° (W) 20:12:06 145.665 - 145.685
O/OREOS (USA 219) 19 Aug 20:13:57 20:18:31 79° 70° (ENE) 20:23:05 437.305
RS-15 19 Aug 20:21:30 20:33:14 54° 53° (NE) 20:44:19 29.354- 29.394
STRAND 1 19 Aug 20:21:32 20:26:39 74° 103° (ESE) 20:31:43 437.568
UWE-3 19 Aug 20:27:35 20:31:49 71° 259° (W) 20:35:59 435.000/436.395/437.385
CUBEBUG 2 19 Aug 20:32:19 20:36:16 34° 262° (W) 20:40:07 437.445
CUTE 1.7 + AOD 2 19 Aug 20:37:16 20:39:46 15° 267° (W) 20:42:16 437.475
AAUSAT CUBESAT 2 19 Aug 20:40:10 20:44:11 51° 261° (W) 20:48:16 437.432
Oscar 11 19 Aug 20:43:08 20:47:19 56° 75° (ENE) 20:51:33 .
ZACube-1 19 Aug 21:10:48 21:14:44 39° 261° (W) 21:18:38 437.345
EO-88 19 Aug 21:26:25 21:29:06 20° 71° (ENE) 21:31:47 145.990 - 145.960
AO-73 19 Aug 21:33:27 21:36:51 24° 264° (W) 21:40:14 145.935
UNISAT 6 19 Aug 21:57:23 22:00:16 17° 95° (E) 22:03:11 437.425
DELFI C3 19 Aug 21:58:03 22:02:03 81° 261° (W) 22:06:04 145.870
Max Valier Satellite 19 Aug 22:01:55 22:05:33 85° 78° (ENE) 22:09:13 145.860
STRAND 1 19 Aug 22:03:25 22:05:08 12° 297° (WNW) 22:06:52 437.568
PRISM 19 Aug 22:26:53 22:30:15 24° 96° (E) 22:33:35 437.425
TIGRISAT 19 Aug 22:31:52 22:35:56 40° 99° (E) 22:40:04 435.000
RS-15 19 Aug 22:34:37 22:45:15 41° 254° (WSW) 22:55:25 29.354- 29.394
FO-29 19 Aug 22:39:41 22:45:14 73° 285° (WNW) 22:50:24 435.910
PCSat 19 Aug 22:44:47 22:50:00 51° 111° (ESE) 22:55:15 145.827
LO-87 19 Aug 22:59:53 23:03:12 37° 74° (ENE) 23:06:32 145.935 - 145.965
EO-88 19 Aug 22:59:56 23:02:37 20° 264° (W) 23:05:21 145.990 - 145.960
ESTCUBE 1 19 Aug 23:07:54 23:11:54 33° 71° (ENE) 23:15:56 437.505/2401.250
M-CUBED/EXP-1 PRIME 19 Aug 23:31:36 23:33:45 14° 96° (E) 23:35:50 437.505
AIST 2D 19 Aug 23:31:49 23:34:32 20° 95° (E) 23:37:15 435.315
UNISAT 6 19 Aug 23:33:08 23:37:01 33° 287° (WNW) 23:40:56 437.425
SPROUT 19 Aug 23:39:12 23:41:52 16° 68° (ENE) 23:44:33 437.525
SO-50 19 Aug 23:47:21 23:51:51 70° 300° (WNW) 23:56:22 436.795
PRISM 20 Aug 00:02:11 00:05:22 22° 291° (WNW) 00:08:32 437.425
TIGRISAT 20 Aug 00:09:49 00:12:17 15° 292° (WNW) 00:14:45 435.000
NANOSAT C BR1 20 Aug 00:20:40 00:24:21 30° 97° (E) 00:28:02 145.865
POLYITAN 1 20 Aug 00:23:58 00:27:53 37° 98° (E) 00:31:48 437.675
PCSat 20 Aug 00:29:40 00:33:40 21° 308° (NW) 00:37:41 145.827
LO-87 20 Aug 00:36:22 00:36:45 10° 267° (W) 00:37:08 145.935 - 145.965
QB50P2 20 Aug 00:38:49 00:43:00 65° 101° (E) 00:47:11 145.880/145.840
EO-79 20 Aug 00:40:00 00:44:08 59° 100° (E) 00:48:17 145.935-145.965
UKube-1 20 Aug 00:45:07 00:47:11 13° 66° (ENE) 00:49:15 .
ESTCUBE 1 20 Aug 00:45:31 00:48:44 19° 266° (W) 00:51:58 437.505/2401.250
NO-84 20 Aug 00:46:37 00:48:39 17° 126° (SE) 00:50:37 435.350 FM
VELOX 1 20 Aug 00:55:59 01:00:26 76° 258° (WSW) 01:04:54 145.980
DX 1 20 Aug 01:02:06 01:06:01 33° 71° (ENE) 01:09:57 434.975-435.025
M-CUBED/EXP-1 PRIME 20 Aug 01:04:18 01:08:24 41° 292° (WNW) 01:12:12 437.505
AIST 2D 20 Aug 01:05:04 01:07:34 18° 289° (WNW) 01:10:03 435.315
DUCHIFAT 1 20 Aug 01:11:30 01:15:40 71° 285° (WNW) 01:19:50 145.980
SPROUT 20 Aug 01:13:32 01:17:27 35° 262° (W) 01:21:22 437.525
BUGSAT 1 20 Aug 01:16:52 01:20:24 29° 98° (E) 01:23:56 437.445
50 SAT 20 Aug 01:32:53 01:36:15 64° 258° (WSW) 01:39:40 437.505
Oscar 19 20 Aug 01:34:24 01:38:23 22° 95° (E) 01:42:20 437.125/150
NANOSAT C BR1 20 Aug 01:56:54 01:59:49 19° 291° (WNW) 02:02:44 145.865
POLYITAN 1 20 Aug 02:00:52 02:03:20 15° 292° (WNW) 02:05:48 437.675
YUBILEINY 20 Aug 02:05:59 02:11:36 18° 67° (ENE) 02:17:11 435.215
MOZHAYETS 4 20 Aug 02:18:04 02:19:38 12° 65° (ENE) 02:21:12
UKube-1 20 Aug 02:18:35 02:22:45 47° 260° (W) 02:26:56 .
BEESAT 20 Aug 02:22:34 02:25:44 18° 66° (ENE) 02:28:54 436.000
NO-84 20 Aug 02:23:30 02:25:53 22° 319° (NW) 02:28:13 435.350 FM
Gurwin Techsat 1B 20 Aug 02:37:30 02:42:46 61° 101° (E) 02:48:00 435.225
DX 1 20 Aug 02:39:12 02:42:13 18° 265° (W) 02:45:16 434.975-435.025
BUGSAT 1 20 Aug 02:52:52 02:55:31 17° 291° (WNW) 02:58:08 437.445
ITUPSAT 1 20 Aug 02:54:44 02:59:06 38° 72° (ENE) 03:03:30 437.325
AO-7 20 Aug 03:01:43 03:06:38 17° 93° (E) 03:11:29 .
Oscar 19 20 Aug 03:12:58 03:17:45 38° 289° (WNW) 03:22:31 437.125/150
MOZHAYETS 4 20 Aug 03:51:45 03:56:14 59° 259° (W) 04:00:44
BEESAT 20 Aug 03:58:41 04:03:09 41° 261° (W) 04:07:38 436.000
YUBILEINY 20 Aug 04:00:37 04:09:20 80° 266° (W) 04:18:00 435.215
CUBESAT XI-V 20 Aug 04:08:58 04:13:14 37° 72° (ENE) 04:17:32 437.345
KKS-1 20 Aug 04:12:01 04:15:00 18° 67° (ENE) 04:18:01 437.445
Gurwin Techsat 1B 20 Aug 04:19:12 04:22:09 15° 296° (WNW) 04:25:05 435.225
BEESAT 3 20 Aug 04:28:18 04:30:38 15° 109° (ESE) 04:32:58 437.485
ITAMSAT 1 20 Aug 04:29:48 04:34:59 76° 103° (ESE) 04:40:09 435.822/435.867
ITUPSAT 1 20 Aug 04:33:46 04:37:01 18° 265° (W) 04:40:17 437.325
AO-7 20 Aug 04:51:48 05:00:10 84° 288° (WNW) 05:08:26 .
STARS 20 Aug 04:53:08 04:56:22 20° 68° (ENE) 04:59:35 437.465
AO-85 20 Aug 05:17:54 05:21:31 34° 114° (ESE) 05:25:05 145.980
KKS-1 20 Aug 05:47:08 05:51:15 36° 262° (W) 05:55:23 437.445
CUBESAT XI-V 20 Aug 05:47:33 05:50:41 18° 267° (W) 05:53:50 437.345
LilacSat-2 20 Aug 06:00:36 06:02:17 12° 93° (E) 06:03:58 437.200
YUBILEINY 20 Aug 06:01:43 06:04:37 12° 283° (WNW) 06:07:30 435.215
BEESAT 3 20 Aug 06:04:07 06:07:50 37° 304° (WNW) 06:11:36 437.485
XW-2D 20 Aug 06:05:39 06:07:43 14° 94° (E) 06:09:45 145.860 - 145.880
DOVE 4 20 Aug 06:06:15 06:10:40 52° 99° (E) 06:14:50 437.250
ITAMSAT 1 20 Aug 06:12:00 06:13:45 12° 298° (WNW) 06:15:30 435.822/435.867
BEESAT 2 20 Aug 06:15:19 06:19:17 86° 116° (ESE) 06:23:21 435.950
NUDT-PHONESAT 20 Aug 06:16:03 06:17:42 13° 93° (E) 06:19:22 437.300
XW-2B 20 Aug 06:16:06 06:18:48 18° 95° (E) 06:21:30 145.730 - 145.750
STARS 20 Aug 06:28:34 06:32:28 30° 262° (W) 06:36:22 437.465
CUTE-I 20 Aug 06:32:26 06:36:56 28° 96° (E) 06:41:25 437.470
XW-2C 20 Aug 06:34:28 06:37:57 32° 98° (E) 06:41:25 145.795 - 145.815
AO-7 20 Aug 06:46:54 06:51:41 17° 307° (NW) 06:56:29 .
XW-2F 20 Aug 06:47:13 06:50:55 45° 99° (E) 06:54:35 145.980 - 146.000
AO-85 20 Aug 06:59:24 07:01:59 17° 310° (NW) 07:04:33 145.980
KAITUO 1B 20 Aug 07:13:51 07:17:40 83° 102° (ESE) 07:21:28 145.475/437.950
HO-68 20 Aug 07:21:55 07:28:00 29° 97° (E) 07:34:02 435.675
LilacSat-2 20 Aug 07:33:05 07:36:39 36° 286° (WNW) 07:40:13 437.200
STRAND 1 20 Aug 07:34:03 07:39:10 75° 74° (ENE) 07:44:16 437.568
PCSat 20 Aug 07:36:24 07:40:37 22° 53° (NE) 07:44:46 145.827
SEEDS 20 Aug 07:38:00 07:41:02 19° 94° (E) 07:44:02 437.485
XW-2D 20 Aug 07:38:30 07:41:56 32° 287° (WNW) 07:45:22 145.860 - 145.880
DOVE 4 20 Aug 07:46:02 07:47:46 12° 296° (WNW) 07:49:29 437.250
NUDT-PHONESAT 20 Aug 07:48:16 07:51:40 33° 287° (WNW) 07:55:03 437.300
XW-2B 20 Aug 07:49:47 07:52:55 24° 289° (WNW) 07:56:03 145.730 - 145.750
XW-2C 20 Aug 08:09:42 08:11:48 14° 292° (WNW) 08:13:55 145.795 - 145.815
CUTE-I 20 Aug 08:12:17 08:16:55 31° 291° (WNW) 08:21:31 437.470
UWE-3 20 Aug 08:20:16 08:23:56 27° 97° (E) 08:27:40 435.000/436.395/437.385
SO-50 20 Aug 08:21:33 08:25:53 41° 56° (NE) 08:30:15 436.795
CUTE 1.7 + AOD 2 20 Aug 08:23:06 08:27:24 71° 283° (WNW) 08:31:38 437.475
XW-2F 20 Aug 08:23:48 08:24:35 11° 293° (WNW) 08:25:21 145.980 - 146.000
CUBEBUG 2 20 Aug 08:25:23 08:29:33 58° 100° (E) 08:33:48 437.445
AAUSAT CUBESAT 2 20 Aug 08:25:30 08:29:10 29° 97° (E) 08:32:49 437.432
Tancredo 1 20 Aug 08:28:10 08:30:13 18° 130° (SE) 08:32:18 437.200
Oscar 11 20 Aug 08:35:04 08:37:14 13° 93° (E) 08:39:24 .
FO-29 20 Aug 08:46:25 08:53:20 38° 69° (ENE) 08:59:43 435.910
O/OREOS (USA 219) 20 Aug 08:46:27 08:48:29 13° 99° (E) 08:50:32 437.305
UNISAT 6 20 Aug 08:55:17 08:56:15 11° 65° (ENE) 08:57:14 437.425
NO-84 20 Aug 08:58:12 09:01:03 31° 43° (NE) 09:04:05 435.350 FM
ZACube-1 20 Aug 09:01:31 09:05:39 45° 99° (E) 09:09:52 437.345
XW-2A 20 Aug 09:02:52 09:05:58 33° 286° (WNW) 09:09:04 145.665 - 145.685
HO-68 20 Aug 09:09:04 09:15:49 46° 292° (WNW) 09:22:33 435.675
SEEDS 20 Aug 09:13:00 09:16:41 29° 288° (WNW) 09:20:22 437.485
PRISM 20 Aug 09:14:34 09:16:13 12° 66° (ENE) 09:17:52 437.425
PCSat 20 Aug 09:19:02 09:24:13 46° 249° (WSW) 09:29:20 145.827
ISS 20 Aug 09:22:42 09:25:01 18° 129° (SE) 09:27:20 437.550
AO-73 20 Aug 09:23:05 09:27:24 74° 102° (ESE) 09:31:46 145.935
TIGRISAT 20 Aug 09:27:51 09:31:20 24° 70° (ENE) 09:34:46 435.000
nSIGHT-1 20 Aug 09:31:40 09:34:22 24° 130° (SE) 09:37:04 .
DELFI C3 20 Aug 09:39:21 09:41:47 16° 94° (E) 09:44:11 145.870
UWE-3 20 Aug 09:57:01 10:00:12 21° 290° (WNW) 10:03:26 435.000/436.395/437.385
AAUSAT CUBESAT 2 20 Aug 10:01:28 10:04:23 19° 291° (WNW) 10:07:17 437.432
Tancredo 1 20 Aug 10:02:43 10:05:16 27° 324° (NW) 10:07:50 437.200
SO-50 20 Aug 10:02:57 10:06:01 18° 250° (WSW) 10:09:06 436.795
CUBEBUG 2 20 Aug 10:05:19 10:05:40 10° 294° (WNW) 10:06:00 437.445
Oscar 11 20 Aug 10:09:24 10:13:32 43° 286° (WNW) 10:17:39 .
M-CUBED/EXP-1 PRIME 20 Aug 10:14:10 10:16:12 13° 59° (ENE) 10:18:16 437.505
JUGNU 20 Aug 10:14:26 10:15:50 11° 165° (SSE) 10:17:14 437.505
O/OREOS (USA 219) 20 Aug 10:23:08 10:27:25 45° 293° (WNW) 10:31:43 437.305
UNISAT 6 20 Aug 10:28:09 10:32:27 58° 260° (W) 10:36:42 437.425
EO-88 20 Aug 10:30:39 10:34:08 39° 99° (E) 10:37:35 145.990 - 145.960
FO-29 20 Aug 10:31:06 10:38:11 39° 262° (W) 10:44:48 435.910
NO-84 20 Aug 10:36:05 10:38:17 17° 234° (SW) 10:40:36 435.350 FM
ZACube-1 20 Aug 10:39:24 10:41:32 14° 293° (WNW) 10:43:40 437.345
RS-15 20 Aug 10:39:33 10:50:49 47° 108° (ESE) 11:02:16 29.354- 29.394
PRISM 20 Aug 10:47:01 10:51:01 47° 260° (W) 10:55:04 437.425
ISS 20 Aug 10:58:15 11:01:17 34° 323° (NW) 11:04:20 437.550
TIGRISAT 20 Aug 11:04:22 11:07:54 24° 264° (W) 11:11:24 435.000
nSIGHT-1 20 Aug 11:07:49 11:10:39 27° 325° (NW) 11:13:31 .
Max Valier Satellite 20 Aug 11:08:34 11:12:05 42° 286° (WNW) 11:15:36 145.860
NANOSAT C BR1 20 Aug 11:10:38 11:13:05 15° 67° (ENE) 11:15:31 145.865
DELFI C3 20 Aug 11:13:04 11:16:34 30° 288° (WNW) 11:20:02 145.870
POLYITAN 1 20 Aug 11:14:04 11:17:01 19° 69° (ENE) 11:19:58 437.675
QB50P2 20 Aug 11:28:18 11:32:00 30° 71° (ENE) 11:35:41 145.880/145.840
EO-79 20 Aug 11:29:21 11:32:57 28° 71° (ENE) 11:36:34 145.935-145.965
AIST 2D 20 Aug 11:34:53 11:38:21 88° 264° (W) 11:41:51 435.315
M-CUBED/EXP-1 PRIME 20 Aug 11:45:37 11:49:58 62° 255° (WSW) 11:54:33 437.505
DUCHIFAT 1 20 Aug 11:59:42 12:03:45 51° 74° (ENE) 12:07:48 145.980
JUGNU 20 Aug 12:00:24 12:04:05 17° 175° (S) 12:07:45 437.505
LO-87 20 Aug 12:02:45 12:06:17 76° 102° (ESE) 12:09:47 145.935 - 145.965
BUGSAT 1 20 Aug 12:04:35 12:06:49 14° 68° (ENE) 12:09:02 437.445
EO-88 20 Aug 12:06:26 12:07:23 11° 293° (WNW) 12:08:20 145.990 - 145.960
ESTCUBE 1 20 Aug 12:39:29 12:44:01 72° 285° (WNW) 12:48:32 437.505/2401.250
NANOSAT C BR1 20 Aug 12:44:34 12:48:26 37° 261° (W) 12:52:20 145.865
Oscar 19 20 Aug 12:48:16 12:52:17 24° 67° (ENE) 12:56:20 437.125/150
POLYITAN 1 20 Aug 12:48:53 12:52:34 29° 263° (W) 12:56:14 437.675
VELOX 1 20 Aug 12:49:39 12:53:19 25° 96° (E) 12:56:56 145.980
RS-15 20 Aug 12:51:25 13:03:11 51° 308° (NW) 13:15:09 29.354- 29.394
SPROUT 20 Aug 13:01:52 13:05:57 45° 99° (E) 13:10:01 437.525
QB50P2 20 Aug 13:04:55 13:07:46 18° 265° (W) 13:10:39 145.880/145.840
EO-79 20 Aug 13:05:39 13:08:41 19° 265° (W) 13:11:42 145.935-145.965
BUGSAT 1 20 Aug 13:38:00 13:41:50 37° 261° (W) 13:45:38 437.445
DUCHIFAT 1 20 Aug 13:39:13 13:39:39 10° 268° (W) 13:40:06 145.980
JUGNU 20 Aug 13:48:44 13:52:22 17° 185° (S) 13:55:59 437.505
AO-85 20 Aug 13:52:00 13:54:37 15° 50° (NE) 13:57:19 145.980
Gurwin Techsat 1B 20 Aug 13:55:16 14:00:33 71° 75° (ENE) 14:05:51 435.225
AO-7 20 Aug 13:57:41 14:03:20 20° 56° (NE) 14:08:58 .
SRMSAT 20 Aug 13:59:16 14:02:21 15° 170° (S) 14:05:27 437.500
UKube-1 20 Aug 14:08:42 14:12:38 34° 98° (E) 14:16:32 .
BEESAT 3 20 Aug 14:23:32 14:27:19 41° 57° (ENE) 14:31:02 437.485
VELOX 1 20 Aug 14:26:04 14:29:37 24° 291° (WNW) 14:33:09 145.980
Oscar 19 20 Aug 14:26:41 14:31:21 35° 262° (W) 14:36:04 437.125/150
DX 1 20 Aug 14:28:49 14:33:11 84° 286° (WNW) 14:37:31 434.975-435.025
50 SAT 20 Aug 14:30:05 14:33:15 38° 286° (WNW) 14:36:23 437.505
BEESAT 2 20 Aug 14:36:35 14:39:33 19° 51° (NE) 14:42:29 435.950
SPROUT 20 Aug 14:39:29 14:41:25 13° 294° (WNW) 14:43:19 437.525
ITUPSAT 1 20 Aug 15:00:11 15:02:09 12° 92° (E) 15:04:07 437.325
YUBILEINY 20 Aug 15:03:12 15:09:43 24° 82° (E) 15:16:12 435.215
RS-15 20 Aug 15:12:06 15:19:43 18° 338° (NNW) 15:27:19 29.354- 29.394
AO-85 20 Aug 15:30:55 15:35:14 54° 244° (WSW) 15:39:53 145.980
Gurwin Techsat 1B 20 Aug 15:39:10 15:40:55 12° 269° (W) 15:42:41 435.225
JUGNU 20 Aug 15:39:40 15:40:35 10° 195° (SSW) 15:41:30 437.505
ITAMSAT 1 20 Aug 15:44:26 15:49:38 84° 76° (ENE) 15:54:51 435.822/435.867
UKube-1 20 Aug 15:45:30 15:48:22 18° 293° (WNW) 15:51:13 .
AO-7 20 Aug 15:46:42 15:55:05 83° 253° (WSW) 16:03:31 .
SRMSAT 20 Aug 15:46:57 15:50:46 18° 180° (S) 15:54:37 437.500
MOZHAYETS 4 20 Aug 15:49:51 15:54:12 39° 99° (E) 15:58:31
BEESAT 20 Aug 16:01:29 16:06:13 63° 101° (E) 16:10:56 436.000
nSIGHT-1 20 Aug 16:02:30 16:03:40 11° 25° (NNE) 16:04:49 .
BEESAT 3 20 Aug 16:02:39 16:04:28 13° 252° (WSW) 16:06:16 437.485
CUBESAT XI-V 20 Aug 16:10:36 16:12:23 12° 91° (E) 16:14:09 437.345
BEESAT 2 20 Aug 16:13:43 16:17:20 32° 247° (WSW) 16:20:53 435.950
Tancredo 1 20 Aug 16:27:27 16:30:18 54° 40° (NE) 16:33:08 437.200
ITUPSAT 1 20 Aug 16:35:35 16:40:16 56° 286° (WNW) 16:44:56 437.325
